Showing default

RADUGA 17, 16250

Orbit data source: Space-Track

RADUGA 17, 16250 is a payload satellite owned by GUKOS (CIS) in GEO that was launched on Fri, 15 Nov 1985 UTC via a PROTON-K/DM launch vehicle from the Tyuratam Missile And Space Complex (TTMTR). Payload-class satellites include a variety of spacecraft equipped with specific instruments for various scientific and technological missions. These include communications satellites like Starlink; space stations such as the ISS; scientific satellites like the Hubble; Earth observation satellites from companies like Planet Labs, Umbra, and HawkEye 360; GPS; miniature CubeSats for education and research; and military/defense satellites.

Not visible in the next 10 days
Identifier
16250, 1985-107A
Orbit
GEO
Country
Flag of CISCIS
Related business
Manufacturer
NPO PM
Mission
Non-operational spacecraft
Bus & Motor
RADUGA, Unknown motor
Mass
1,965 kg wet, ~1,800 kg dry
Launch date (UTC)
1985-11-15 (40 years ago)
Launch vehicle
PROTON-K/DM
Launch site
Tyuratam Missile And Space Complex (TTMTR)
Object type
Payload
Rocket body
Debris
Shape & HBR
Unknown
Radar Cross Section
Large (>1 m²)

Expand to show TLE details & history
Last TLE update: 15 hours ago

TLE from 15 hours ago
0 RADUGA 17
1 16250U 85107A   26129.98956100 -.00000293  00000-0  00000+0 0  9997
2 16250   9.6713 318.6184 0012480 233.0750 132.1907  1.00132618151291
Epoch: 2026-05-09T23:44Z
TLE epoch observation values (Epoch: 2026-05-09T23:44:58.070Z)
Latitude
0.91436°
Longitude
99.86358°
Altitude
35,860.377 km
Speed
3.071 km/s
True Right ascension
21h 35m 37s
True Declination
0° 54' 48"
Sunlit
Object was in daylight at epoch
Visualization orbit readout
Latitude
Unknown
Longitude
Unknown
Altitude
Unknown
Speed
Unknown
Apparent Right ascension
Unknown
Apparent Declination
Unknown
Sunlit
N/A
Visualization observer readout
Local Sidereal Time
23:13:53
Azimuth
Unknown
Elevation
Unknown
Doppler factor
Unknown
Orbital elements
Apogee altitude
35,879.351 km
Perigee altitude
35,774.007 km
Semi-major axis
42,204.816 km
Eccentricity
0.00125
Inclination
9.6713°
RAAN
318.6184°
Arg. of periapsis
233.075°
True anomaly
132.29655°
Mean anomaly
132.1907°
Eccentric anomaly
132.24363°
Mean motion
0.25032 °/min
Orbital period
1,438.14 mins
BSTAR
0
Loading maneuver chart data...
Computing Atmospheric mass density...
Loading historical data...
Loading historical data...
Loading historical data...
Loading historical data...
Loading historical data...
Loading historical data...
Loading historical data...

Documentation

Showing up to 5 results
|